Temperature
2 2 2 2 2 2 2 2 2 1 1 2 2 2 2 2 2 2 3 3 3 2 2 2 2 2 3 3 3 3 3 3 3 3 3 3 3 3
1 1 1 2 2 2 1 1 1 1 1 1 1 2 2 2 2 2 2 2 2 2 2 2 2 2 2 2 2 2 2 2 2 3 3 3 3 3
1 1 1 1 1 1 1 1 1 1 1 1 1 1 1 1 1 1 1 1 1 1 1 1 1 1 1 1 2 2 2 2 2 2 2 2 2 2
0 0 0 0 0 0 0 0 0 0 0 0 0 0 0 0 0 1 1 1 1 1 1 1 1 1 1 1 1 1 1 1 1 1 1 1 1 1
-1 -0 -0 -0 -0 -1 -1 -0 -0 -1 -0 -0 -0 -0 -0 -0 -0 -0 -0 -0 -0 0 -0 -0 -0 0 0 0 0 0 0 1 0 0 0 0 0 1
-1 -1 -1 -1 -1 -1 -1 -1 -1 -1 -1 -1 -1 -1 -1 -1 -1 -1 -1 -1 -1 -1 -1 -1 -1 -1 -1 -1 -0 -0 -0 -0 -0 -0 -0 -0 -0 -0
-2 -2 -2 -2 -2 -2 -2 -2 -2 -2 -2 -2 -2 -2 -2 -2 -1 -1 -2 -1 -1 -1 -1 -1 -1 -1 -1 -1 -1 -1 -1 -1 -1 -1 -1 -1 -1 -1
-3 -3 -3 -2 -2 -3 -3 -3 -3 -3 -3 -3 -3 -2 -2 -2 -2 -2 -3 -2 -2 -2 -2 -2 -2 -2 -2 -2 -2 -2 -2 -2 -2 -2 -1 -2 -2 -2
-3 -3 -3 -3 -3 -3 -3 -3 -3 -3 -3 -3 -3 -3 -3 -3 -3 -3 -3 -3 -3 -3 -3 -3 -3 -3 -2 -2 -2 -2 -2 -2 -2 -2 -2 -2 -2 -2
-4 -4 -4 -4 -4 -4 -4 -4 -4 -4 -4 -4 -4 -4 -4 -4 -4 -4 -4 -4 -4 -4 -4 -4 -3 -3 -3 -3 -3 -3 -3 -3 -3 -3 -3 -3 -3 -3
-5 -5 -5 -5 -5 -5 -5 -5 -4 -4 -5 -5 -5 -5 -4 -4 -5 -5 -5 -5 -4 -4 -4 -5 -4 -4 -4 -4 -4 -4 -4 -4 -4 -4 -4 -4 -4 -4
-5 -5 -5 -5 -5 -6 -6 -5 -5 -5 -5 -5 -5 -5 -5 -5 -5 -5 -5 -5 -5 -5 -5 -5 -5 -5 -5 -5 -5 -4 -4 -4 -4 -4 -4 -4 -4 -4
-6 -6 -6 -6 -6 -6 -6 -6 -6 -6 -6 -6 -6 -6 -6 -6 -6 -6 -6 -6 -6 -6 -6 -6 -6 -6 -6 -6 -6 -5 -5 -5 -5 -5 -5 -5 -5 -5
-6 -6 -6 -7 -7 -7 -7 -7 -7 -7 -7 -7 -7 -7 -7 -7 -6 -6 -7 -7 -7 -7 -6 -7 -7 -7 -7 -7 -7 -6 -6 -6 -6 -6 -6 -6 -6 -6
-7 -7 -7 -7 -7 -7 -7 -7 -8 -8 -8 -8 -8 -7 -7 -7 -7 -7 -7 -7 -7 -7 -7 -7 -7 -7 -8 -8 -7 -7 -7 -7 -7 -7 -7 -7 -6 -6
-8 -8 -8 -8 -8 -8 -8 -8 -8 -8 -8 -8 -8 -8 -8 -8 -8 -8 -8 -8 -8 -8 -8 -8 -8 -8 -8 -8 -8 -8 -8 -8 -7 -8 -8 -7 -7 -7
-9 -9 -9 -9 -9 -9 -9 -9 -9 -9 -9 -9 -9 -9 -9 -9 -9 -9 -9 -9 -9 -8 -8 -8 -8 -8 -8 -8 -8 -8 -8 -8 -8 -8 -8 -8 -8 -8
-9 -9 -9 -9 -9 -10 -10 -10 -9 -9 -9 -9 -9 -9 -9 -9 -9 -9 -9 -9 -9 -9 -9 -9 -9 -9 -9 -9 -9 -9 -9 -9 -9 -9 -9 -9 -8 -8
-10 -10 -10 -10 -10 -10 -10 -10 -10 -10 -10 -10 -10 -10 -10 -10 -10 -10 -10 -10 -10 -9 -9 -9 -9 -10 -10 -9 -9 -9 -9 -9 -9 -9 -9 -9 -9 -8
-10 -11 -11 -11 -11 -11 -11 -11 -11 -11 -11 -11 -11 -10 -10 -10 -10 -10 -10 -10 -10 -10 -10 -10 -10 -10 -10 -10 -10 -9 -9 -10 -10 -10 -9 -9 -9 -9
-11 -11 -11 -11 -11 -11 -11 -11 -11 -11 -11 -11 -11 -11 -11 -11 -11 -11 -11 -11 -11 -11 -10 -10 -10 -10 -10 -10 -10 -10 -10 -10 -10 -10 -10 -10 -10 -10
-12 -12 -12 -12 -12 -12 -12 -12 -12 -12 -12 -12 -12 -12 -12 -12 -11 -11 -11 -11 -11 -11 -11 -11 -11 -11 -11 -11 -11 -10 -10 -10 -10 -10 -10 -10 -11 -10
-12 -12 -12 -12 -12 -12 -12 -12 -12 -12 -12 -12 -12 -12 -12 -12 -12 -12 -12 -12 -11 -11 -11 -11 -11 -11 -11 -11 -11 -11 -11 -11 -11 -11 -10 -10 -11 -11
Wind_Speed
2 2 2 1 1 1 1 2 2 2 3 2 0 0 0 1 2 2 2 4 4 4 5 5 5 5 5 5 6 7 7 7 8 8 9 9 9 9
1 2 1 1 1 1 1 1 1 2 3 2 1 1 1 2 2 2 3 4 5 5 5 5 5 5 5 6 6 7 7 8 8 9 9 9 9 9
1 1 1 1 1 1 1 1 1 1 3 3 2 2 2 1 1 2 3 3 4 6 6 5 5 6 6 6 7 7 8 8 8 8 9 9 9 9
2 2 2 2 2 1 1 1 2 2 2 4 3 2 2 2 1 2 2 3 3 5 6 6 6 6 6 7 7 8 8 8 7 8 8 8 8 8
2 2 2 2 2 2 2 2 2 2 2 3 3 2 2 2 1 2 2 2 4 4 5 5 5 6 6 7 7 8 8 7 7 7 7 8 8 8
2 2 2 2 2 2 2 2 2 2 2 2 3 2 2 2 1 1 2 2 3 4 4 4 5 6 7 7 7 7 7 7 8 8 7 7 7 7
2 3 3 4 4 4 3 3 2 2 2 3 3 3 3 2 2 2 3 2 3 2 2 3 4 4 5 7 7 7 7 7 7 7 7 7 7 8
3 3 3 4 5 6 6 5 5 4 4 4 4 4 4 3 2 2 2 2 3 2 2 4 3 3 4 5 7 8 8 7 7 7 7 7 7 7
3 3 3 3 3 3 4 5 5 6 6 5 5 6 5 4 3 3 3 3 4 3 2 4 3 4 4 6 8 8 8 7 7 7 7 7 8 8
3 4 4 3 3 3 3 3 3 4 5 5 5 5 4 4 4 4 4 4 4 3 2 4 3 3 4 6 8 7 7 8 8 8 8 8 8 8
3 3 4 4 6 6 3 3 4 3 4 5 6 6 6 7 5 2 3 3 4 3 2 2 2 3 3 4 6 7 7 9 9 9 9 9 9 8
3 3 5 5 7 7 4 3 4 4 3 3 3 4 4 5 6 4 4 4 3 3 2 2 2 1 3 3 3 4 6 8 9 9 9 8 8 6
3 3 3 6 7 7 6 4 6 5 3 3 3 2 2 2 2 3 3 4 4 4 3 2 2 2 3 3 3 3 4 5 6 7 7 8 8 7
3 3 3 6 7 7 5 5 6 4 2 2 3 3 3 3 2 3 3 4 4 5 5 5 3 3 3 4 4 3 3 5 5 5 6 8 9 9
3 5 5 6 5 4 4 5 4 2 2 3 4 3 3 2 2 2 2 3 4 5 6 6 4 4 4 5 5 4 4 4 4 4 5 6 6 7
2 4 5 5 4 4 3 3 2 2 3 3 3 3 2 2 3 3 3 3 3 4 4 6 6 5 5 5 5 6 4 3 3 5 5 6 7 7
2 2 2 1 2 1 1 1 1 2 3 2 3 3 3 4 4 3 3 3 4 4 4 3 5 5 6 5 5 6 5 5 5 5 5 6 6 7
3 2 2 2 2 2 2 2 2 2 3 3 3 3 4 4 4 3 3 3 4 4 4 3 3 3 3 4 6 6 5 5 5 5 5 6 7 6
2 2 2 2 2 2 2 2 2 2 2 3 3 3 3 4 4 4 4 4 4 4 4 3 3 3 5 6 4 5 5 4 4 5 5 6 7 7
1 1 2 2 2 2 2 2 2 2 2 2 3 3 3 3 4 4 4 4 4 4 4 4 4 5 6 6 5 4 7 5 5 6 6 5 6 9
2 2 2 2 2 2 2 2 2 2 2 2 3 3 3 3 4 4 4 7 6 5 5 6 6 7 4 2 4 4 4 7 7 6 5 5 5 5
2 2 2 2 2 2 2 2 2 2 2 3 3 3 3 3 4 4 5 5 5 5 6 5 4 3 3 5 6 6 5 5 7 9 9 8 5 5
2 2 2 2 2 1 2 2 3 3 3 3 3 3 3 4 4 4 5 5 5 5 4 4 4 3 4 5 5 5 5 5 4 4 5 9 11 13
Wind_Direction
205 205 207 210 209 220 206 190 194 249 266 245 215 286 276 257 241 238 256 251 256 267 276 283 286 286 290 293 295 293 289 289 290 292 293 295 295 297
220 205 216 229 211 214 215 227 210 223 258 279 283 287 263 277 272 272 272 266 266 268 268 274 281 284 287 288 290 293 293 292 288 288 289 289 289 293
281 239 252 237 221 228 227 226 234 227 254 285 301 303 300 284 301 301 290 271 270 271 269 273 281 285 287 286 288 291 290 289 289 290 290 289 289 290
254 250 259 253 237 241 230 234 235 236 238 266 284 286 296 275 278 302 300 286 285 280 270 273 278 280 284 285 288 290 287 284 284 286 287 289 291 292
236 241 251 238 250 253 246 244 255 266 255 249 270 286 297 290 293 298 293 302 291 283 277 274 277 281 284 289 292 291 285 282 281 281 283 285 287 291
246 241 240 233 233 239 243 240 245 252 250 245 259 276 287 290 254 256 290 295 298 296 285 287 286 285 286 289 290 291 286 281 283 284 284 286 287 291
240 238 236 234 244 244 247 230 223 234 236 242 246 260 259 268 260 241 261 286 289 275 283 287 284 283 282 287 287 288 290 288 287 287 288 288 287 288
244 245 242 242 242 250 252 247 234 227 229 238 248 246 252 256 269 262 252 272 278 267 277 284 273 268 277 273 281 286 287 287 287 288 289 290 290 290
238 243 259 252 251 239 258 261 259 250 241 236 238 245 249 247 246 254 252 255 261 260 267 274 267 271 278 281 284 284 285 287 289 288 286 285 287 287
240 233 237 245 250 244 247 257 264 258 251 243 233 242 246 237 232 245 247 263 277 275 255 261 265 267 285 283 277 275 282 286 286 284 285 286 286 286
259 244 238 234 243 250 244 244 259 266 267 253 253 256 261 263 258 249 254 264 275 273 255 246 271 287 280 269 270 274 283 287 286 284 283 284 284 285
262 255 250 247 247 249 237 228 247 253 252 257 256 262 260 257 260 240 237 252 268 267 245 237 264 292 291 275 273 288 289 286 287 287 284 282 283 290
253 248 249 252 256 258 257 242 247 255 244 242 246 245 242 235 240 241 232 235 246 251 247 239 258 258 258 282 284 276 277 285 288 287 285 284 285 287
250 248 247 256 264 266 267 257 256 261 239 241 248 245 239 239 235 236 240 242 243 247 247 242 248 245 251 270 280 281 277 280 279 280 280 287 290 288
248 249 254 262 272 273 266 265 265 248 232 243 250 253 245 230 223 241 253 254 262 260 256 250 245 249 246 258 270 277 284 283 268 264 272 278 279 283
266 254 261 267 276 272 267 273 259 240 238 242 248 257 249 239 242 245 254 255 261 273 273 263 254 243 249 258 260 268 266 260 266 271 274 276 275 270
247 235 222 231 243 244 259 269 258 256 262 253 248 252 257 256 253 247 254 252 250 260 271 276 271 260 252 249 257 258 261 265 262 265 272 277 273 269
260 232 225 224 233 242 249 258 258 254 253 253 253 253 254 257 259 253 250 249 257 262 262 263 272 288 288 270 243 249 256 263 268 268 263 272 276 273
259 233 230 231 231 233 245 256 264 264 257 253 256 256 255 256 257 252 248 250 256 259 258 253 250 250 267 277 275 242 249 265 273 274 267 265 272 276
244 233 236 237 235 240 246 252 259 266 271 267 265 263 259 255 253 252 249 247 254 262 264 254 242 242 247 257 267 272 256 253 257 266 275 277 278 283
263 254 245 242 243 247 254 257 257 258 260 266 271 271 268 263 261 258 255 257 256 257 259 258 257 259 255 250 267 274 268 264 260 260 263 275 284 284
263 265 264 253 245 244 248 252 259 260 258 263 266 267 267 267 264 262 258 256 256 256 261 268 262 254 240 247 259 269 278 287 286 275 263 258 255 257
266 263 261 264 268 259 252 250 252 255 256 258 260 265 267 267 266 264 263 260 260 264 270 274 273 256 250 249 256 266 271 279 285 290 283 281 272 271
Height
1505 1506 1507 1508 1510 1511 1512 1513 1514 1513 1513 1514 1515 1515 1516 1517 1517 1518 1519 1519 1520 1520 1521 1521 1521 1521 1521 1520 1520 1520 1520 1519 1520 1520 1520 1520 1520 1520
1501 1502 1503 1504 1505 1506 1507 1509 1510 1510 1510 1510 1510 1512 1513 1513 1513 1514 1514 1515 1516 1516 1516 1516 1516 1516 1516 1516 1516 1515 1515 1515 1515 1515 1515 1515 1515 1515
1497 1498 1499 1501 1501 1502 1503 1504 1506 1507 1506 1506 1507 1507 1508 1509 1509 1509 1510 1510 1511 1511 1512 1512 1512 1512 1511 1511 1511 1510 1510 1510 1510 1510 1509 1510 1510 1510
1493 1494 1496 1497 1497 1498 1499 1500 1501 1502 1503 1502 1502 1503 1503 1504 1504 1505 1505 1506 1506 1506 1507 1507 1507 1507 1506 1506 1505 1505 1505 1504 1504 1505 1505 1505 1505 1505
1490 1491 1492 1492 1493 1494 1495 1495 1496 1497 1498 1498 1498 1498 1498 1499 1499 1500 1500 1501 1501 1501 1501 1502 1502 1502 1501 1501 1500 1500 1499 1499 1499 1499 1499 1499 1500 1500
1486 1487 1488 1488 1489 1490 1490 1491 1492 1492 1493 1493 1493 1493 1494 1494 1494 1494 1495 1496 1496 1497 1497 1497 1497 1496 1496 1496 1495 1495 1494 1494 1494 1494 1494 1494 1494 1494
1481 1483 1483 1484 1485 1486 1486 1486 1487 1488 1488 1488 1488 1489 1489 1489 1489 1490 1490 1491 1491 1492 1492 1491 1491 1491 1491 1491 1490 1490 1490 1489 1489 1489 1488 1489 1489 1489
1477 1478 1478 1479 1480 1481 1482 1482 1483 1483 1483 1483 1483 1483 1484 1485 1485 1486 1486 1486 1486 1487 1487 1486 1486 1486 1486 1486 1485 1485 1485 1484 1484 1484 1484 1483 1483 1483
1472 1473 1473 1474 1475 1476 1476 1477 1477 1478 1479 1479 1479 1479 1480 1480 1481 1481 1481 1481 1481 1481 1482 1480 1481 1480 1481 1480 1480 1480 1480 1479 1479 1479 1478 1478 1478 1478
1467 1468 1469 1469 1470 1471 1471 1472 1472 1472 1473 1474 1475 1475 1475 1476 1476 1477 1477 1476 1476 1477 1477 1475 1475 1475 1475 1474 1474 1474 1474 1474 1473 1473 1473 1473 1472 1472
1462 1463 1464 1464 1465 1466 1466 1466 1467 1467 1468 1469 1469 1470 1470 1471 1472 1472 1472 1472 1471 1470 1471 1471 1469 1469 1468 1468 1469 1469 1468 1468 1468 1468 1467 1467 1467 1466
1457 1458 1459 1460 1460 1461 1461 1461 1461 1462 1463 1463 1464 1464 1465 1465 1466 1467 1467 1467 1466 1465 1465 1466 1465 1464 1463 1462 1463 1463 1463 1463 1462 1462 1461 1461 1461 1460
1452 1453 1454 1455 1456 1456 1457 1457 1457 1457 1457 1457 1457 1458 1459 1459 1460 1461 1461 1462 1461 1460 1461 1461 1460 1460 1460 1457 1457 1458 1458 1457 1457 1456 1456 1456 1456 1455
1447 1448 1449 1450 1450 1451 1451 1452 1452 1453 1452 1452 1452 1452 1453 1454 1454 1455 1456 1456 1456 1456 1456 1456 1455 1455 1454 1453 1452 1452 1452 1452 1452 1451 1451 1451 1450 1449
1443 1444 1445 1445 1445 1445 1446 1447 1447 1447 1447 1447 1447 1447 1448 1449 1449 1450 1450 1450 1450 1450 1451 1451 1451 1450 1450 1448 1447 1446 1446 1446 1446 1446 1445 1445 1444 1443
1439 1440 1440 1441 1441 1441 1441 1441 1442 1442 1442 1442 1442 1443 1443 1444 1444 1444 1444 1444 1444 1444 1445 1445 1445 1445 1444 1443 1442 1441 1441 1441 1440 1440 1440 1439 1438 1437
1435 1435 1435 1436 1435 1435 1436 1436 1437 1437 1438 1438 1438 1438 1439 1439 1439 1439 1439 1439 1439 1439 1439 1439 1439 1439 1439 1438 1437 1436 1436 1435 1435 1435 1434 1432 1432 1431
1431 1431 1431 1431 1431 1431 1431 1432 1432 1432 1433 1433 1434 1434 1434 1434 1434 1434 1434 1434 1434 1434 1434 1434 1434 1433 1433 1432 1433 1431 1431 1430 1430 1429 1428 1426 1425 1425
1427 1426 1426 1427 1427 1427 1428 1428 1428 1428 1429 1429 1429 1429 1429 1429 1429 1430 1430 1430 1429 1429 1429 1429 1429 1428 1427 1425 1425 1427 1426 1425 1424 1424 1423 1421 1419 1418
1422 1422 1422 1423 1423 1424 1424 1424 1424 1424 1425 1425 1425 1425 1425 1425 1425 1425 1425 1424 1424 1424 1424 1424 1424 1423 1423 1422 1420 1420 1421 1420 1419 1418 1417 1415 1414 1413
1418 1419 1419 1419 1419 1420 1420 1420 1420 1420 1420 1420 1420 1420 1420 1420 1420 1420 1420 1420 1420 1419 1418 1418 1418 1419 1418 1417 1416 1414 1415 1415 1414 1413 1411 1410 1407 1406
1414 1415 1415 1415 1415 1415 1416 1416 1416 1416 1416 1416 1416 1416 1415 1415 1415 1415 1415 1415 1414 1414 1414 1413 1413 1413 1413 1412 1410 1409 1409 1409 1409 1408 1407 1406 1404 1401
1411 1411 1411 1411 1411 1411 1411 1411 1411 1411 1411 1411 1411 1411 1411 1411 1411 1410 1410 1410 1410 1409 1409 1408 1408 1408 1407 1407 1406 1405 1404 1403 1403 1402 1401 1401 1400 1399